Regional Weather Roundup
Issued by NWS

Home | Current Version | Previous Version | Graphics & Text | Print | Product List | Glossary Off
Versions: 1 2 3 4 5 6 7 8 9 10 11 12 13 14 15 16 17 18 19 20 21 22 23 24 25 26 27 28 29 30 31 32 33 34 35 36 37 38 39 40 41 42 43 44 45 46 47 48 49 50

000
ASUS43 KTOP 281959
RWRKS

WEATHER ROUNDUP FOR KANSAS
NATIONAL WEATHER SERVICE GOODLAND KS
300 PM CDT WED JUN 28 2017

NOTE:  "FAIR" INDICATES FEW OR NO CLOUDS BELOW 12,000 FEET WITH NO
SIGNIFICANT WEATHER AND/OR OBSTRUCTIONS TO VISIBILITY.

KSZ001>006-013>018-027>032-041>047-282100-
NORTHWEST KANSAS

CITY           SKY/WX    TMP DP  RH WIND       PRES   REMARKS
GOODLAND       SUNNY     88  46  23 VRB3      29.82F
HAYS           SUNNY     92  66  42 SW13      29.73F
HILL CITY      SUNNY     91  57  31 CALM      29.74F
RUSSELL        MOSUNNY   92  66  42 S20       29.72F
$$

KSZ061>065-074>080-084>089-282100-
SOUTHWEST KANSAS

CITY           SKY/WX    TMP DP  RH WIND       PRES   REMARKS
DODGE CITY     SUNNY     93  61  34 S18       29.75F
ELKHART          N/A     93  55  27 NE3         N/A
GARDEN CITY    SUNNY     92  58  31 NE7       29.75F
GREAT BEND     PTSUNNY   93  68  43 S16G22    29.73F HX  97
LIBERAL        SUNNY     93  59  31 SW15G22   29.77F
$$

KSZ066>073-081>083-090>101-282100-
SOUTHEAST KANSAS

CITY           SKY/WX    TMP DP  RH WIND       PRES   REMARKS
CHANUTE        PTSUNNY   90  69  50 S21G30    29.83F
COFFEYVILLE    PTSUNNY   89  70  53 S18G31    29.83F
HUTCHINSON     SUNNY     97  62  31 S26G35    29.74F HX  98
MEDICINE LODGE   N/A     95  59  30 S26       29.72F
NEWTON         SUNNY     93  66  40 S29       29.76F HX  96
PARSONS        MOSUNNY   90  70  51 S17G26    29.85F HX  95
WICHITA INTL   MOSUNNY   93  65  39 S29G38    29.75F HX  95
WICHITA JABRA  SUNNY     90  66  45 S23G33    29.76F
WICHITA MCCONL MOSUNNY   92  64  39 SW29      29.77F
WINFIELD       SUNNY     90  67  46 S21G31    29.79F
$$

KSZ007>012-019>026-033>040-048>060-102>105-282100-
NORTHEAST KANSAS

CITY           SKY/WX    TMP DP  RH WIND       PRES   REMARKS
CONCORDIA      MOSUNNY   92  67  43 SW18G33   29.70F HX  95
EMPORIA        SUNNY     89  70  53 S26G35    29.78F
LAWRENCE       MOSUNNY   90  73  57 S18G30    29.76F HX  98
MANHATTAN      MOSUNNY   96  69  41 S21G30    29.70F HX 102
OLATHE IND     PTSUNNY   88  70  55 S20G30    29.79F
OLATHE EXE     PTSUNNY   85  71  63 S16G29    29.80F
SALINA         MOSUNNY   98  64  32 S24G36    29.71F HX 100
TOPEKA BILLARD MOSUNNY   91  71  51 S15G26    29.73F HX  97
TOPEKA FORBES  MOSUNNY   92  70  48 S24G32    29.75F HX  97
$$



USA.gov is the U.S. government's official web portal to all federal, state and local government web resources and services.